Total_Precipitation_Accumulation
0.05 0.09 0.15 0.18 0.18 0.16 0.13 0.11 0.17 0.21 0.41 0.46 0.57 0.75 0.94 0.99 0.86 0.77 0.84 0.87 0.87 0.95 1.13 1.28 1.45 1.52 1.52 1.56 1.64 1.79 1.95 2.07 2.34 2.52 2.52 2.38 2.32 2.39 2.42 2.50 2.43 2.62 2.63 2.62
0.05 0.08 0.14 0.17 0.18 0.14 0.10 0.10 0.14 0.20 0.34 0.42 0.57 0.69 0.81 0.78 0.75 0.83 0.87 0.87 0.83 0.92 1.13 1.20 1.27 1.38 1.43 1.50 1.60 1.70 1.82 1.99 2.26 2.52 2.67 2.61 2.61 2.76 2.78 2.73 2.81 2.93 2.89 2.86
0.08 0.12 0.14 0.23 0.19 0.15 0.15 0.14 0.17 0.27 0.33 0.39 0.52 0.68 0.84 0.87 0.87 0.92 0.93 0.91 0.90 0.88 1.00 1.23 1.20 1.23 1.38 1.49 1.67 1.86 2.13 2.35 2.49 2.72 2.88 2.82 2.70 2.71 2.74 2.79 2.78 2.85 2.90 2.98
0.14 0.18 0.27 0.27 0.23 0.23 0.24 0.28 0.29 0.34 0.42 0.48 0.58 0.72 0.85 0.92 0.91 1.01 1.11 1.20 1.24 1.28 1.28 1.38 1.36 1.38 1.48 1.64 1.85 1.97 2.10 2.33 2.51 2.72 2.82 2.89 2.91 2.84 2.92 3.04 3.07 3.10 3.10 3.10
0.24 0.27 0.33 0.35 0.34 0.36 0.40 0.53 0.57 0.65 0.72 0.70 0.72 0.78 0.93 1.05 1.14 1.24 1.23 1.28 1.39 1.45 1.49 1.50 1.58 1.73 1.92 2.00 2.19 2.36 2.48 2.66 2.75 2.78 2.84 2.88 2.93 3.06 3.18 3.30 3.31 3.34 3.32 3.29
0.35 0.45 0.54 0.54 0.52 0.47 0.56 0.92 0.82 0.90 1.01 0.99 1.06 1.31 1.37 1.35 1.35 1.39 1.37 1.40 1.48 1.52 1.57 1.78 1.84 1.91 2.10 2.33 2.50 2.69 2.86 2.96 3.03 3.08 3.09 3.05 3.06 3.18 3.27 3.34 3.37 3.40 3.28 3.28
0.49 0.53 0.59 0.58 0.57 0.57 1.01 1.38 1.29 1.30 1.33 1.26 1.41 1.51 1.39 1.31 1.43 1.49 1.55 1.61 1.64 1.69 1.79 1.93 2.00 2.07 2.25 2.53 2.78 2.99 3.03 3.08 3.14 3.25 3.42 3.55 3.58 3.40 3.26 3.27 3.37 3.42 3.36 3.38
0.77 0.93 0.99 0.69 0.77 1.14 1.41 1.35 1.57 1.46 1.31 1.33 1.34 1.30 1.25 1.26 1.43 1.61 1.74 1.79 1.82 1.86 1.90 1.95 2.08 2.22 2.33 2.58 2.73 2.93 2.96 3.09 3.18 3.24 3.18 3.20 3.50 3.60 3.57 3.46 3.33 3.31 3.35 3.26
1.10 1.23 1.10 0.91 0.97 1.25 1.30 1.31 1.45 1.45 1.26 1.23 1.25 1.19 1.21 1.28 1.40 1.57 1.71 1.76 1.76 1.82 1.96 1.95 1.98 2.18 2.46 2.54 2.62 2.67 2.79 2.93 3.15 3.26 3.33 3.31 3.32 3.43 3.45 3.37 3.16 2.93 2.94 2.98
1.43 1.46 1.30 1.12 1.02 1.10 1.18 1.24 1.30 1.43 1.43 1.32 1.30 1.26 1.33 1.37 1.44 1.64 1.73 1.73 1.78 1.74 1.78 1.89 2.00 2.19 2.30 2.35 2.51 2.76 2.88 2.92 3.00 3.09 3.14 3.23 3.32 3.30 3.25 3.22 3.14 2.96 2.93 2.94
1.95 2.00 1.85 1.67 1.42 1.30 1.27 1.30 1.39 1.50 1.56 1.62 1.58 1.54 1.59 1.52 1.54 1.64 1.68 1.64 1.73 1.83 1.87 1.93 2.01 2.18 2.34 2.39 2.45 2.60 2.70 2.68 2.76 2.92 3.01 3.09 3.23 3.30 3.15 3.04 3.06 2.94 2.97 3.12
2.34 2.17 2.18 2.02 1.66 1.50 1.51 1.60 1.59 1.61 1.65 1.62 1.61 1.60 1.63 1.67 1.59 1.51 1.48 1.61 1.76 1.84 1.93 1.98 2.03 2.12 2.19 2.28 2.41 2.55 2.63 2.67 2.66 2.70 2.84 2.94 2.91 2.97 3.01 2.76 2.68 2.51 2.54 2.61
1.96 1.97 2.03 1.92 1.75 1.64 1.68 1.67 1.71 1.77 1.74 1.65 1.60 1.59 1.60 1.65 1.70 1.62 1.57 1.60 1.73 1.78 1.81 1.88 1.91 1.97 1.98 2.06 2.34 2.64 2.73 2.82 2.78 2.58 2.53 2.57 2.61 2.58 2.59 2.49 2.23 2.09 2.05 1.97
1.97 2.00 2.10 1.99 1.95 1.79 1.77 1.67 1.62 1.60 1.53 1.54 1.59 1.62 1.56 1.55 1.66 1.77 1.74 1.75 1.88 1.93 1.81 1.72 1.74 1.80 1.86 1.93 2.08 2.29 2.38 2.47 2.44 2.31 2.24 2.22 2.23 2.24 2.14 2.14 2.04 1.87 1.82 1.78
1.83 1.84 1.96 1.89 1.84 1.84 1.87 1.83 1.72 1.62 1.50 1.56 1.63 1.65 1.72 1.77 1.83 1.95 1.96 2.01 2.08 2.08 1.93 1.76 1.71 1.74 1.80 1.91 2.02 2.08 2.17 2.19 2.14 2.13 2.18 2.25 2.33 2.37 2.27 2.15 2.14 2.07 1.93 1.77
1.71 1.77 1.77 1.84 1.99 1.88 1.81 1.85 1.87 1.78 1.63 1.63 1.70 1.71 1.74 1.79 1.91 1.94 1.97 2.14 2.33 2.34 2.19 2.06 1.92 1.81 1.77 1.91 2.08 2.14 2.15 2.33 2.26 2.09 2.10 2.29 2.42 2.41 2.44 2.48 2.39 2.42 2.38 2.05
1.85 1.89 1.80 1.86 1.98 2.00 1.95 1.88 1.91 1.86 1.80 1.82 1.84 1.73 1.73 1.81 1.95 2.04 1.96 1.95 2.07 2.17 2.16 2.08 1.96 1.84 1.85 1.91 2.00 2.14 2.16 2.21 2.21 2.07 2.07 2.19 2.30 2.41 2.43 2.49 2.56 2.56 2.51 2.31
1.72 1.64 1.60 1.67 1.72 1.81 1.91 1.93 1.94 1.85 1.79 1.77 1.82 1.79 1.80 1.89 2.03 2.08 1.99 1.89 1.87 1.92 1.96 1.91 1.83 1.80 1.83 1.85 1.94 2.11 2.14 2.10 2.09 2.10 2.15 2.22 2.26 2.39 2.56 2.59 2.61 2.68 2.55 2.45
1.69 1.56 1.50 1.50 1.49 1.55 1.70 1.82 1.86 1.81 1.72 1.72 1.80 1.80 1.76 1.76 1.88 2.00 2.00 2.08 2.12 2.05 1.91 1.77 1.74 1.64 1.69 1.77 1.79 1.86 1.89 1.95 2.06 2.12 2.16 2.24 2.28 2.33 2.43 2.48 2.54 2.61 2.48 2.43
1.81 1.75 1.62 1.53 1.50 1.49 1.57 1.62 1.71 1.77 1.71 1.69 1.71 1.75 1.73 1.72 1.82 2.05 2.19 2.26 2.30 2.18 1.99 1.82 1.54 1.47 1.53 1.61 1.59 1.49 1.52 1.61 1.68 1.78 1.92 2.03 2.09 2.19 2.17 2.16 2.21 2.29 2.25 2.26
1.98 1.89 1.81 1.71 1.72 1.62 1.58 1.54 1.59 1.71 1.74 1.78 1.87 1.91 1.83 1.74 1.77 2.04 2.42 2.51 2.33 2.08 1.93 1.87 1.53 1.33 1.23 1.32 1.46 1.45 1.51 1.53 1.52 1.62 1.70 1.79 1.88 1.96 2.07 2.14 2.13 2.10 2.11 2.10
2.08 1.98 1.89 1.78 1.70 1.68 1.64 1.59 1.61 1.69 1.72 1.75 1.75 1.75 1.79 1.72 1.74 1.98 2.23 2.44 2.28 2.08 1.69 1.57 1.43 1.25 1.19 1.16 1.15 1.29 1.41 1.46 1.47 1.54 1.61 1.68 1.74 1.81 1.90 1.93 1.92 1.86 1.86 1.91
2.14 1.99 1.92 1.81 1.72 1.69 1.66 1.68 1.68 1.73 1.71 1.66 1.64 1.75 1.82 1.85 1.83 2.03 2.14 1.91 1.72 1.74 1.53 1.45 1.38 1.24 1.14 1.10 1.13 1.16 1.24 1.33 1.37 1.39 1.42 1.49 1.58 1.65 1.70 1.74 1.74 1.65 1.65 1.67
2.03 2.06 2.11 2.06 1.85 1.76 1.80 1.79 1.78 1.77 1.65 1.64 1.66 1.75 1.82 1.83 1.79 1.70 1.73 1.72 1.66 1.59 1.44 1.44 1.31 1.14 1.03 0.95 1.04 1.15 1.24 1.31 1.33 1.31 1.31 1.38 1.46 1.52 1.60 1.67 1.71 1.64 1.58 1.50
1.98 1.98 2.01 2.02 1.93 1.85 1.81 1.78 1.83 1.82 1.73 1.72 1.67 1.67 1.66 1.65 1.67 1.64 1.59 1.55 1.59 1.50 1.36 1.39 1.32 1.27 1.16 1.12 1.16 1.22 1.25 1.33 1.37 1.36 1.39 1.42 1.46 1.52 1.57 1.61 1.62 1.57 1.52 1.50
2.00 1.94 1.92 1.90 1.81 1.84 1.86 1.88 1.94 1.90 1.79 1.73 1.72 1.67 1.58 1.50 1.50 1.57 1.65 1.59 1.42 1.37 1.29 1.29 1.26 1.28 1.23 1.27 1.34 1.33 1.28 1.32 1.37 1.34 1.40 1.53 1.58 1.61 1.57 1.49 1.48 1.50 1.43 1.36
2.00 1.94 1.92 1.85 1.80 1.77 1.82 1.84 1.89 1.93 1.82 1.71 1.73 1.71 1.67 1.67 1.69 1.68 1.68 1.66 1.52 1.39 1.31 1.27 1.23 1.15 1.15 1.20 1.25 1.31 1.31 1.32 1.32 1.33 1.38 1.47 1.50 1.48 1.43 1.40 1.42 1.42 1.34 1.30